STARLINK-5711, 55471

Orbit data source: Space-Track

STARLINK-5711, 55471 is a payload satellite owned by SpaceX/Seattle (US) in LEO that was launched on Thu, 02 Feb 2023 UTC via an FALCON 9 launch vehicle from the Air Force Eastern Test Range (AFETR). Payload-class satellites include a variety of spacecraft equipped with specific instruments for various scientific and technological missions. These include communications satellites like Starlink; space stations such as the ISS; scientific satellites like the Hubble; Earth observation satellites from companies like Planet Labs, Umbra, and HawkEye 360; GPS; miniature CubeSats for education and research; and military/defense satellites.

Loading next visibility...
Identifier
55471, 2023-015Y
Orbit
LEO
Country
Flag of USUS
Related business
Manufacturer
SpaceX/Seattle
Mission
Operational Commercial Communications
Bus & Motor
STARLINK, Unknown motor
Mass
305 kg wet, ~290 kg dry
Launch date (UTC)
2023-02-02 (3 years ago)
Launch vehicle
FALCON 9
Launch site
Air Force Eastern Test Range (AFETR)
Object type
Payload
Rocket body
Debris
Shape & HBR
Box + 1 Pan, 10.1 m
Radar Cross Section
13.562 m², Large (>1 m²)

Expand to show TLE details & history
Last TLE update: 7 hours ago

TLE from 7 hours ago
0 STARLINK-5711
1 55471U 23015Y   26035.76114356 -.00000611  00000-0 -30202-4 0  9993
2 55471  43.0029 144.6563 0001361 269.1348  90.9339 15.02526872165806
Epoch: 2026-02-04T18:16Z
TLE epoch observation values (Epoch: 2026-02-04T18:16:02.803Z)
Latitude
0.00002°
Longitude
95.72155°
Altitude
558.901 km
Speed
7.584 km/s
True Right ascension
09h 38m 37s
True Declination
0° 00' 00"
Sunlit
Object was in full shadow at epoch
Visualization orbit readout
Latitude
Unknown
Longitude
Unknown
Altitude
Unknown
Speed
Unknown
Apparent Right ascension
Unknown
Apparent Declination
Unknown
Sunlit
N/A
Visualization observer readout
Local Sidereal Time
03:09:15
Azimuth
Unknown
Elevation
Unknown
Doppler factor
Unknown
Orbital elements
Apogee altitude
561.975 km
Perigee altitude
560.087 km
Semi-major axis
6,939.168 km
Eccentricity
0.00014
Inclination
43.0029°
RAAN
144.6563°
Arg. of periapsis
269.1348°
True anomaly
90.94949°
Mean anomaly
90.9339°
Eccentric anomaly
90.9417°
Mean motion
3.75476 °/min
Orbital period
95.88 mins
BSTAR
-0.000030202
Loading maneuver chart data...
Computing Atmospheric mass density...
Loading historical data...
Loading historical data...
Loading historical data...
Loading historical data...
Loading historical data...
Loading historical data...
Loading historical data...

Documentation

Showing up to 5 results
|